This demonstration page uses our WeatherBlox Daily Observations layout. Learn more.

39.92423, -83.80882

Hourly Observations for April 17, 2017

Temp ( °F °C ) Dew Point ( °F °C ) Humidity (%) Winds ( mph kmh ) Pressure ( in mb ) Visibility ( mi km ) Precip ( " mm )
12:05 am 00:05 Cloudy 63 17 61 16 94 94 WSW 8 13 30.06 1018 10 16.0934 0 0
12:28 am 00:28 Cloudy 63 17 61 16 94 94 WSW 7 11 30.06 1018 10 16.0934 0 0
12:51 am 00:51 Cloudy 63 17 59 15 88 88 WSW 8 13 30.06 1018 10 16.0934 0 0
12:56 am 00:56 Cloudy 62 16.7 59 15 90 90 WSW 7 11 30.04 1017 10 16.0934 0 0
1:51 am 01:51 Partly Cloudy 61 16 59 15 94 94 WSW 6 9 30.06 1018 10 16.0934 0 0
1:56 am 01:56 Mostly Clear 60 15.6 58 14.4 93 93 WSW 6 9 30.03 1017 10 16.0934 0 0
2:56 am 02:56 Cloudy 60 15.6 59 15 96 96 W 6 9 30.04 1017 10 16.0934 0 0
3:17 am 03:17 Cloudy 61 16 59 15 94 94 WNW 7 11 30.06 1018 10 16.0934 0 0
3:44 am 03:44 Cloudy 61 16 59 15 94 94 NW 7 11 30.06 1018 10 16.0934 0 0
3:56 am 03:56 Partly Cloudy 60 15.6 58 14.4 93 93 NW 6 9 30.04 1017 10 16.0934 0 0
4:56 am 04:56 Mostly Cloudy 59 15 53 11.7 81 81 N 9 15 30.07 1018 10 16.0934 0 0
5:56 am 05:56 Partly Cloudy 55 12.8 47 8.3 74 74 N 8 13 30.09 1019 10 16.0934 0 0
6:56 am 06:56 Mostly Sunny 54 12.2 42 5.6 64 64 NNE 8 13 30.11 1020 10 16.0934 0 0
7:56 am 07:56 Sunny 54 12.2 41 5 62 62 NNE 9 15 30.14 1021 10 16.0934 0 0
8:56 am 08:56 Sunny 56 13.3 42 5.6 60 60 NE 8 13 30.16 1021 10 16.0934 0 0
9:56 am 09:56 Sunny 60 15.6 43 6.1 53 53 NE 6 9 30.16 1021 10 16.0934 0 0
10:56 am 10:56 Sunny 64 17.8 40 4.4 41 41 NNE 6 9 30.16 1022 10 16.0934 0 0
11:56 am 11:56 Sunny 66 18.9 36 2.2 33 33 N 7 11 30.16 1021 10 16.0934 0 0
12:56 pm 12:56 Mostly Sunny 68 20 39 3.9 35 35 NNE 9 15 30.15 1021 10 16.0934 0 0
1:56 pm 13:56 Sunny 68 20 34 1.1 28 28 Calm 30.14 1021 10 16.0934 0 0
2:56 pm 14:56 Partly Cloudy 68 20 35 1.7 30 30 ENE 6 9 30.15 1021 10 16.0934 0 0
3:56 pm 15:56 Sunny 68 20 34 1.1 28 28 VRB 3 6 30.14 1021 10 16.0934 0 0
4:56 pm 16:56 Sunny 67 19.4 35 1.7 31 31 NE 7 11 30.14 1021 10 16.0934 0 0
5:56 pm 17:56 Sunny 65 18.3 36 2.2 34 34 NE 9 15 30.15 1021 10 16.0934 0 0
6:56 pm 18:56 Sunny 62 16.7 40 4.4 44 44 NE 8 13 30.16 1021 10 16.0934 0 0
7:56 pm 19:56 Sunny 59 15 39 3.9 48 48 NE 7 11 30.16 1022 10 16.0934 0 0
8:56 pm 20:56 Clear 58 14.4 37 2.8 46 46 ENE 3 6 30.18 1022 10 16.0934 0 0
9:56 pm 21:56 Clear 55 12.8 39 3.9 55 55 E 3 6 30.19 1022 10 16.0934 0 0
10:56 pm 22:56 Clear 54 12.2 39 3.9 57 57 E 3 6 30.19 1022 10 16.0934 0 0
11:56 pm 23:56 Clear 54 12.2 38 3.3 55 55 E 3 6 30.2 1023 10 16.0934 0 0

Powered by AerisWeather